Preview of NWS' New Version of Forecast
This preview is not operational and should not be used for support decisions.

Regional Weather Roundup (RWR)

Issued by Philadelphia/Mt Holly (PHI)

                            
000
ASUS41 KPHI 221512
RWRPHI

REGIONAL WEATHER ROUNDUP
NATIONAL WEATHER SERVICE MOUNT HOLLY NJ
1100 AM EDT FRI MAR 22 2019

NOTE:  "FAIR" INDICATES FEW OR NO CLOUDS BELOW 12,000 FEET WITH NO
SIGNIFICANT WEATHER AND/OR OBSTRUCTIONS TO VISIBILITY.

 * = STATION DOES NOT REPORT PRECIPITATION (E.G. RAIN, SNOW, ETC.) 
        OR FOG.

NJZ015>026-221600-
SOUTHERN NEW JERSEY
  
CITY           SKY/WX    TMP DP  RH WIND       PRES   REMARKS
POMONA         PTSUNNY   44  42  93 W21G35    29.45R                  
WILDWOOD*      CLOUDY    46  36  68 W18G36    29.52R                  
MILLVILLE      CLOUDY    45  35  68 NW23G38   29.50R                  
MOUNT HOLLY    CLOUDY    45  36  70 NW15G31   29.46R                  
TRENTON        NOT AVBL                                               

$$
NJZ001>014-221600-
NORTHERN NEW JERSEY
  
CITY           SKY/WX    TMP DP  RH WIND       PRES   REMARKS
SUSSEX         LGT RAIN  40  36  86 MISG      29.39S                  
ANDOVER*       NOT AVBL                                               
MORRISTOWN     DRIZZLE   41  37  87 N14G30    29.40R                  
NEWARK         LGT RAIN  43  37  79 NW22G32   29.37R                  
TETERBORO      LGT RAIN  44  37  76 NW16      29.35R                  
ALLAIRE*       LGT RAIN  41  38  89 W23G32    29.38R                  
TOMS RIVER*    LGT RAIN  42  40  92 NW21G36   29.41R                  

$$
PAZ043-044-047-054-055-060>062-066>071-221600-
EASTERN PENNSYLVANIA
  
CITY           SKY/WX    TMP DP  RH WIND       PRES   REMARKS
PHILADELPHIA   CLOUDY    45  35  68 NW22G35   29.50R                  
NORTH PHILA    CLOUDY    45  36  70 NW21G31   29.48R                  
DOYLESTOWN     LGT RAIN  41  37  86 NW15G29   29.45R                  
PERKASIE*      LGT RAIN  39  37  93 NW18G25   29.48R WCI  30          
POTTSTOWN      CLOUDY    43  33  68 W15G31    29.51R                  
READING        PTSUNNY   44  34  67 NW26      29.52R                  
ALLENTOWN      CLOUDY    44  33  65 NW18G26   29.47S                  
MOUNT POCONO   NOT AVBL                                               
HAZLETON       CLOUDY    36  30  80 W14G20    29.50S WCI  27          
LEHIGHTON      CLOUDY    41  32  70 W9G16     29.50F                  
WILKES BARRE   CLOUDY    37  33  85 VRB7      29.48F WCI  32          

$$
DEZALL-MDZ008-012-015-019-020-221600-
DELAWARE AND EASTERN MARYLAND
  
CITY           SKY/WX    TMP DP  RH WIND       PRES   REMARKS
WILMINGTON     CLOUDY    46  34  62 NW24G36   29.54R                  
DOVER          CLOUDY    46  34  62 W20G30    29.54R                  
GEORGETOWN     CLOUDY    50  33  52 NW13G29   29.57R                  
PATUXENT       FAIR      50  33  52 NW31G47   29.64R                  
OCEAN CITY     NOT AVBL                                               
WALLOPS ISLAND PTSUNNY   51  32  48 NW28G44   29.60R                  
CAMBRIDGE      CLOUDY    46  32  57 NW18G30   29.63R                  
SALISBURY      CLOUDY    48  35  60 W21G32    29.59R                  

$$
PAZ001-021-NYZ056-072-MDZ011-DCZ001-221600-
OTHER NEARBY LOCATIONS
  
CITY           SKY/WX    TMP DP  RH WIND       PRES   REMARKS
STATE COLLEGE  CLOUDY    37  30  75 W17       29.61S WCI  28          
WILLIAMSPORT   CLOUDY    42  29  59 NW14G21   29.57R                  
BINGHAMTON     NOT AVBL                                               
NEW YORK CITY  CLOUDY    43  37  79 W10G18    29.37S                  
BALTIMORE      PTSUNNY   49  32  52 W23G32    29.61S                  
WASHINGTON DC  NOT AVBL                                               

$$